Regional Weather Roundup
Issued by NWS

Home | Current Version | Previous Version | Text Only | Print | Product List | Glossary Off
Versions: 1 2 3 4 5 6 7 8 9 10 11 12 13 14 15 16 17 18 19 20 21 22 23 24 25 26 27 28 29 30 31 32 33 34 35 36 37 38 39 40 41 42 43 44 45 46 47 48 49 50

000
ASUS43 KOAX 150610
RWRNE

WEATHER ROUNDUP FOR NEBRASKA
NATIONAL WEATHER SERVICE OMAHA NE
100 AM CDT MON SEP 15 2014

NOTES: SATELLITE DATA IS BEING USED TO AUGMENT CLOUD COVER ABOVE
       12000 FEET.
       "FAIR" INDICATES FEW OR NO CLOUDS BELOW 12,000 FEET WITH NO
       SIGNIFICANT WEATHER AND/OR OBSTRUCTIONS TO VISIBILITY.

  * THESE STATIONS DO NOT REPORT WEATHER SUCH AS RAIN...SNOW OR FOG.

NEZ001>004-019>022-054>056-150700-
NEBRASKA PANHANDLE

CITY           SKY/WX    TMP DP  RH WIND       PRES   REMARKS
SCOTTSBLUFF    CLEAR     47  42  83 N5        30.19R
6HR MIN TEMP:  47; 6HR MAX TEMP:  66;

ALLIANCE       CLOUDY    47  41  80 N12       30.18R
6HR MIN TEMP:  47; 6HR MAX TEMP:  65;

CHADRON        CLEAR     41  39  93 N3        30.22R
6HR MIN TEMP:  41; 6HR MAX TEMP:  62;

KIMBALL        PTCLDY    49  46  88 N10       30.16R
SIDNEY         PTCLDY    52  47  83 N16       30.15R
6HR MIN TEMP:  52; 6HR MAX TEMP:  77;

$$

NEZ057>060-069>072-079>082-150700-
SOUTHWEST NEBRASKA

CITY           SKY/WX    TMP DP  RH WIND       PRES   REMARKS
NORTH PLATTE   PTCLDY    53  51  93 CALM      30.05R
6HR MIN TEMP:  53; 6HR MAX TEMP:  68;

IMPERIAL       PTCLDY    57  55  93 E6        30.04R
6HR MIN TEMP:  57; 6HR MAX TEMP:  71; 6HR PCP: TRACE;

LEXINGTON      CLOUDY    60  53  78 E7        30.02F
MCCOOK         PTCLDY    57  53  86 NE12      30.01F
6HR MIN TEMP:  57; 6HR MAX TEMP:  74;

OGALLALA       PTCLDY    57  56  95 NE6       30.07R
$$

NEZ005>010-023>029-035>040-094-150700-
NORTH CENTRAL NEBRASKA

CITY           SKY/WX    TMP DP  RH WIND       PRES   REMARKS
VALENTINE      CLOUDY    51  38  60 N9        30.17R
6HR MIN TEMP:  50; 6HR MAX TEMP:  59;

AINSWORTH      CLOUDY    49  42  76 N8        30.14S
BROKEN BOW     MOCLDY    58  52  80 NE3       30.05F
6HR MIN TEMP:  58; 6HR MAX TEMP:  67;

O`NEILL        CLOUDY    52  48  86 N8        30.12R
ORD            MOCLDY    55  52  89 CALM      30.04F
6HR MIN TEMP:  55; 6HR MAX TEMP:  64;

THEDFORD       CLOUDY    54  49  85 NE9       30.12R
$$

NEZ041-046>049-061>064-073>077-083>087-150700-
SOUTH CENTRAL NEBRASKA

CITY           SKY/WX    TMP DP  RH WIND       PRES   REMARKS
GRAND ISLAND   CLOUDY    61  54  77 E9        30.04S
6HR MIN TEMP:  61; 6HR MAX TEMP:  66;

AURORA         PTCLDY    59  55  84 NE6       30.04R
HASTINGS       PTCLDY    58  52  80 E7        30.02F
6HR MIN TEMP:  58; 6HR MAX TEMP:  66;

HEBRON         CLEAR     61  55  82 E6        29.99F
HOLDREGE       MOCLDY    57  52  84 CALM      30.04R
KEARNEY *      PTCLDY    57  52  82 NE9       30.03S
YORK           PTCLDY    59  55  88 E8        30.03F
$$

NEZ011>018-030>034-042>045-150700-
NORTHEAST NEBRASKA

CITY           SKY/WX    TMP DP  RH WIND       PRES   REMARKS
NORFOLK        PTCLDY    57  52  83 E6        30.06F
6HR MIN TEMP:  57; 6HR MAX TEMP:  66;

ALBION         MOCLDY    57  53  84 CALM      30.06S
BLAIR          CLOUDY    62  56  80 E6        30.05F
COLUMBUS *     CLOUDY    61  54  77 SE6       30.06F
FREMONT        CLOUDY    62  56  82 SE3       30.06F
TEKAMAH        CLOUDY    61  56  83 CALM      30.06F
6HR MIN TEMP:  60; 6HR MAX TEMP:  67;

WAYNE          PTCLDY    51  50  95 N6        30.08S
$$

NEZ050>053-065>068-078-088>093-150700-
SOUTHEAST NEBRASKA

CITY           SKY/WX    TMP DP  RH WIND       PRES   REMARKS
LINCOLN        CLOUDY    63  56  78 N18G26    30.05F THUNDER
6HR MIN TEMP:  65; 6HR MAX TEMP:  69;

OMAHA EPPLEY   TSTM      63  55  75 SE3       30.07F
6HR MIN TEMP:  63; 6HR MAX TEMP:  68; 6HR PCP: TRACE;

BEATRICE       PTCLDY    63  56  79 SE9       30.00F
FALLS CITY     CLOUDY    65  58  78 SE6       30.05F
6HR MIN TEMP:  64; 6HR MAX TEMP:  68;

NEBRASKA CITY  CLOUDY    63  53  68 SE7       30.04F
PLATTSMOUTH    CLOUDY    60  56  87 E5        30.05F
$$

NEZ044-045-051>053-067-150700-
OMAHA AREA

CITY           SKY/WX    TMP DP  RH WIND       PRES   REMARKS
OMAHA EPPLEY   TSTM      63  55  75 SE3       30.07F
6HR MIN TEMP:  63; 6HR MAX TEMP:  68; 6HR PCP: TRACE;

BLAIR          CLOUDY    62  56  80 E6        30.05F
FREMONT        CLOUDY    62  56  82 SE3       30.06F
OFFUTT AFB     TSTM      61  61 100 NE8       30.07S
PLATTSMOUTH    CLOUDY    60  56  87 E5        30.05F
WAHOO          CLOUDY    61  55  82 E7        30.05F
$$



USA.gov is the U.S. government's official web portal to all federal, state and local government web resources and services.